Location: Bothwell
(41.7170°N, 112.2589°W)
Time: 01:43:03
(UTC+00:00)

Tiros 1 - Pass Details

Date: 16 May 2026
Orbit: 618 x 649 km, 48.4° (Epoch: 6 June)

Event Time Altitude Azimuth Distance (km) Brightness Sun altitude
Rises 07:34:43 0° 253° (WSW) 2,916 - -29.1°
Reaches altitude 10° 07:37:05 10° 256° (WSW) 2,004 - -29.1°
Maximum altitude 07:41:38 61° 337° (NNW) 710 - -29.0°
Exits shadow 07:43:08 39° 40° (NE) 936 8.2 -29.0°
Drops below altitude 10° 07:46:11 10° 59° (ENE) 1,992 10.1 -29.0°
Sets 07:48:31 0° 63° (ENE) 2,896 10.9 -28.9°
